Location: Grevenbroich
(51.0902°N, 6.5859°E)
Time: 18:28:17
(UTC+01:00)

ISS - Visible Passes

Search period start: 13 January 2025 00:00
Search period end: 23 January 2025 00:00
Orbit: 415 x 418 km, 51.6° (Epoch: 13 January)

Date Brightness Start Highest point End Pass type
(mag) Time Alt. Az. Time Alt. Az. Time Alt. Az.
13 Jan -0.9 19:37:55 10° SSW 19:38:22 13° SSW 19:38:22 13° SSW visible
14 Jan -1.8 18:50:10 10° S 18:52:13 18° SSE 18:52:13 18° SSE visible
15 Jan -1.4 18:02:53 10° SSE 18:04:24 13° SE 18:05:55 10° ESE visible
15 Jan -1.7 19:37:19 10° SW 19:38:54 25° SW 19:38:54 25° SW visible
16 Jan -2.9 18:49:08 10° SW 18:52:13 35° SSE 18:52:35 34° SE visible
16 Jan -0.2 20:25:26 10° W 20:25:29 10° W 20:25:29 10° W visible
17 Jan -2.3 18:01:06 10° SSW 18:03:54 25° SSE 18:06:11 13° E visible
17 Jan -2.2 19:36:59 10° WSW 19:39:05 35° WSW 19:39:05 35° WSW visible
18 Jan -3.6 18:48:34 10° WSW 18:51:54 63° SSE 18:52:38 46° ESE visible
18 Jan -0.3 20:25:17 10° W 20:25:32 12° W 20:25:32 12° W visible
19 Jan -3.2 18:00:13 10° SW 18:03:27 47° SSE 18:06:08 14° E visible
19 Jan -2.5 19:36:45 10° W 19:39:02 40° W 19:39:02 40° W visible
20 Jan -3.9 18:48:12 10° W 18:51:34 89° NNE 18:52:29 45° E visible
20 Jan -0.4 20:25:01 10° W 20:25:23 13° W 20:25:23 13° W visible
21 Jan -3.7 17:59:39 10° WSW 18:03:01 77° SSE 18:05:55 13° E visible
21 Jan -2.6 19:36:25 10° W 19:38:48 43° WNW 19:38:48 43° WNW visible
22 Jan -3.8 18:47:50 10° W 18:51:11 79° N 18:52:13 41° E visible
22 Jan -0.5 20:24:36 10° W 20:25:07 14° W 20:25:07 14° W visible
